Weather in Mulda

Russia / Komi Republic     67°29′03″N   63°40′52″E
temp.,
°C
wind,
m/s
gust,
m/s
humid.,
%
clouds,
%
prec.,
mm/h
press.,
hPa
HPBL,
m
22 october, fri
fri2200:00−3se51081100 0.0 995291
03:00−3se51278100 0.0 994387
06:00−2se61281100 0.0 992488
09:00−2se71179100 0.0 991653
12:00−2sse71178100 0.0 990708
15:00−2sse6118289 0.0 989511
18:00−4se4109020 0.0 988241
21:00−5se499170 0.0 986215
23 october, sat
sat2300:00−5ese499068 0.0 985255
03:00−4ese4987100 0.0 983295
06:00−4ese4896100 0.8 981326
09:00−3ese3796100 2.4 981347
12:00−2e3597100 1.5 981278
15:00−3ne1298100 2.9 982102
18:00−3nnw4797100 0.9 984336
21:00−3wnw61295100 1.4 986532
24 october, sun
sun2400:00−5w7149478 0.1 988355
03:00−5w6129573 0.1 990279
06:00−4wnw6139576 0.1 993397
09:00−5wnw6139311 0.1 996380
12:00−5w511935 0.0 999287
15:00−7w48955 0.0 1001117
18:00−8w479435 0.0 100395
21:00−9wsw349622 0.0 100354
25 october, mon
mon2500:00−8wsw359667 0.0 1004100
03:00−11wsw229628 0.0 100428
06:00−12sw339631 0.0 100535
09:00−10wsw249658 0.0 100572
12:00−8sw359576 0.0 1006123
15:00−8wsw359698 0.1 100688
18:00−10sw489641 0.1 1007109
21:00−10wsw3895100 0.1 1007149
26 october, tue
tue2600:00−11sw369599 0.0 100789
03:00−11sw369624 0.1 100686
06:00−11sw469682 0.0 100596
09:00−10sw499472 0.0 1005174
12:00−6w489599 0.5 1004357
15:00−6wnw3796100 0.8 1004225
18:00−6n51094100 0.4 1006412
21:00−8nw499469 0.4 1007172